Home   Weather   Fort Lauderdale   Past weeks
Flag for USA

Past Weather in Fort Lauderdale, Florida, USA — Yesterday and Last 2 Weeks

Now
80 °F

Passing clouds.


Feels Like: 86 °F
Forecast: 89 / 80 °F
Wind: 3 mph from South

Location: Fort Lauderdale / Hollywood International Airport

Current Time: Oct 21, 2019 at 8:52:15 am

Latest Report: Oct 21, 2019 at 7:53 am


Visibility: 10 mi

Pressure: 29.98 "Hg

Humidity: 90%

Dew Point: 77 °F

Location of Fort LauderdaleLocation

Past Weather in Fort Lauderdale — Graph

°F

Fort Lauderdale Temperature Yesterday

Maximum temperature yesterday: 91 °F (at 12:53 pm)
Minimum temperature yesterday: 81 °F (at 3:53 am)
Average temperature yesterday: 84 °F

High & Low Weather Summary for the Past Weeks

 TemperatureHumidityPressure
High91 °F (Oct 20, 12:53 pm)100% (Oct 7, 1:06 pm)30.06 "Hg (Oct 7, 1:06 pm)
Low75 °F (Oct 8, 12:53 am)55% (Oct 16, 5:53 pm)29.79 "Hg (Oct 7, 5:53 pm)
Average81 °F79%29.92 "Hg
* Reported Oct 6 6:53 am — Oct 21 6:53 am, Fort Lauderdale. Weather by CustomWeather, © 2019

Note: Actual official high and low records may vary slightly from our data, if they occured in-between our weather recording intervals... More about our weather records

Advertising

Fort Lauderdale Weather History for the Previous 24 Hours

Scroll right to see more
 ConditionsComfort  
Time TempWeatherWind HumidityBarometerVisibility
6:53 am
Mon, Oct 21
79 °FPassing clouds.No wind90%29.96 "Hg10 mi
5:53 am79 °FClear.No wind90%29.96 "Hg10 mi
4:53 am79 °FClear.No wind90%29.94 "Hg10 mi
3:53 am79 °FPassing clouds.3 mph90%29.94 "Hg10 mi
2:53 am80 °FPassing clouds.3 mph87%29.95 "Hg10 mi
1:53 am81 °FPassing clouds.3 mph82%29.95 "Hg10 mi
12:53 am81 °FPassing clouds.No wind82%29.97 "Hg10 mi
11:53 pm
Sun, Oct 20
82 °FPassing clouds.No wind79%29.98 "Hg10 mi
10:53 pm82 °FPassing clouds.5 mph77%29.98 "Hg10 mi
9:53 pm83 °FPassing clouds.6 mph74%29.96 "Hg10 mi
8:53 pm83 °FPartly cloudy.6 mph77%29.96 "Hg10 mi
7:53 pm85 °FPartly cloudy.3 mph72%29.94 "Hg10 mi
6:53 pm85 °FPartly cloudy.6 mph72%29.93 "Hg10 mi
5:53 pm86 °FBroken clouds.9 mph70%29.91 "Hg10 mi
4:53 pm88 °FBroken clouds.7 mph65%29.90 "Hg10 mi
3:53 pm90 °FBroken clouds.8 mph59%29.90 "Hg10 mi
2:53 pm91 °FBroken clouds.10 mph56%29.91 "Hg10 mi
1:53 pm88 °FBroken clouds.8 mph65%29.92 "Hg10 mi
12:53 pm91 °FBroken clouds.13 mph61%29.94 "Hg10 mi
11:53 am87 °FBroken clouds.10 mph67%29.96 "Hg10 mi
10:53 am87 °FBroken clouds.13 mph69%29.95 "Hg10 mi
9:53 am85 °FBroken clouds.13 mph77%29.96 "Hg10 mi
8:53 am83 °FBroken clouds.12 mph82%29.93 "Hg10 mi
Weather by CustomWeather, © 2019

See weather overview